Location: Cruquius
(52.3348°N, 4.6319°E)
Time: 04:39:11
(UTC+00:00)

USA 305 - Pass Details

Date: 12 May 2021
Orbit: 567 x 573 km, 54.0° (Epoch: 07 May)

Event Time Altitude Azimuth Distance (km) Brightness Sun altitude
Rises 20:21:57 0° 290° (WNW) 2,774 7.8 -7.6°
Reaches altitude 10° 20:24:14 10° 286° (WNW) 1,875 6.6 -7.8°
Maximum altitude 20:28:25 58° 208° (SSW) 671 3.2 -8.3°
Enters shadow 20:32:22 11° 130° (SE) 1,781 4.7 -8.7°
